Time,TemperatureF,DewpointF,PressureIn,WindDirection,WindDirectionDegrees,WindSpeedMPH,WindSpeedGustMPH,Humidity,HourlyPrecipIn,Conditions,Clouds,dailyrainin,SoftwareType,DateUTC
2013-04-08 00:00:00,44.6,39.5,30.01,West,270,0.0,0.0,82,0.00,,,0.00,pywws,2013-04-08 04:00:00,
2013-04-08 00:01:00,44.6,39.5,30.01,SW,225,0.0,0.0,82,0.00,,,0.00,pywws,2013-04-08 04:01:00,
2013-04-08 00:06:00,44.6,39.8,30.01,South,180,0.0,0.0,83,0.00,,,0.00,pywws,2013-04-08 04:06:00,
2013-04-08 00:11:00,44.8,39.9,30.01,West,270,0.0,0.0,83,0.00,,,0.00,pywws,2013-04-08 04:11:00,
2013-04-08 00:17:00,45.5,41.0,30.01,SE,135,0.0,1.6,84,0.00,,,0.00,pywws,2013-04-08 04:17:00,
2013-04-08 00:22:00,45.3,40.8,30.01,West,270,0.0,1.6,84,0.00,,,0.00,pywws,2013-04-08 04:22:00,
2013-04-08 00:28:00,45.3,40.8,30.01,SW,225,0.0,0.0,84,0.00,,,0.00,pywws,2013-04-08 04:28:00,
2013-04-08 00:34:00,45.1,40.6,30.01,South,180,0.0,0.7,84,0.00,,,0.00,pywws,2013-04-08 04:34:00,
2013-04-08 00:39:00,45.5,41.0,30.01,West,270,0.0,0.7,84,0.00,,,0.00,pywws,2013-04-08 04:39:00,
2013-04-08 00:45:00,45.3,40.8,30.01,West,270,0.0,0.0,84,0.00,,,0.00,pywws,2013-04-08 04:45:00,
2013-04-08 00:51:00,45.3,40.8,30.01,SE,135,0.0,0.0,84,0.00,,,0.00,pywws,2013-04-08 04:51:00,
2013-04-08 00:57:00,45.7,41.4,30.01,South,180,0.0,0.0,85,0.00,,,0.00,pywws,2013-04-08 04:57:00,
2013-04-08 01:02:00,45.5,41.0,30.00,East,90,0.0,0.0,84,0.00,,,0.00,pywws,2013-04-08 05:02:00,
2013-04-08 01:08:00,45.0,40.7,30.00,South,180,0.0,0.0,85,0.00,,,0.00,pywws,2013-04-08 05:08:00,
2013-04-08 01:14:00,45.3,41.1,30.00,West,270,0.0,0.0,85,0.00,,,0.00,pywws,2013-04-08 05:14:00,
2013-04-08 01:19:00,45.5,41.3,30.00,West,270,0.0,0.0,85,0.00,,,0.00,pywws,2013-04-08 05:19:00,
2013-04-08 01:25:00,45.7,41.7,29.99,SW,225,0.0,0.0,86,0.00,,,0.00,pywws,2013-04-08 05:25:00,
2013-04-08 01:30:00,45.5,41.6,29.99,West,270,0.0,0.0,86,0.00,,,0.00,pywws,2013-04-08 05:30:00,
2013-04-08 01:36:00,45.7,41.7,29.99,South,180,0.0,0.7,86,0.00,,,0.00,pywws,2013-04-08 05:36:00,
2013-04-08 01:42:00,45.5,41.6,29.99,South,180,0.0,0.0,86,0.00,,,0.00,pywws,2013-04-08 05:42:00,
2013-04-08 01:47:00,45.5,41.6,29.99,West,270,0.0,0.0,86,0.00,,,0.00,pywws,2013-04-08 05:47:00,
2013-04-08 01:53:00,45.5,41.6,29.98,West,270,0.0,2.2,86,0.00,,,0.00,pywws,2013-04-08 05:53:00,
2013-04-08 01:58:00,45.5,41.6,29.98,East,90,0.0,0.0,86,0.00,,,0.00,pywws,2013-04-08 05:58:00,
2013-04-08 02:04:00,45.3,41.4,29.98,East,90,0.0,0.0,86,0.00,,,0.00,pywws,2013-04-08 06:04:00,
2013-04-08 02:09:00,45.0,41.0,29.98,South,180,0.0,0.0,86,0.00,,,0.00,pywws,2013-04-08 06:09:00,
2013-04-08 02:14:00,45.0,41.0,29.98,South,180,0.0,0.0,86,0.00,,,0.00,pywws,2013-04-08 06:14:00,
2013-04-08 02:20:00,44.8,41.2,29.99,West,270,0.0,0.0,87,0.00,,,0.00,pywws,2013-04-08 06:20:00,
2013-04-08 02:26:00,44.6,41.0,29.98,SE,135,0.0,0.0,87,0.00,,,0.00,pywws,2013-04-08 06:26:00,
2013-04-08 02:32:00,44.6,41.0,29.98,West,270,0.0,0.0,87,0.00,,,0.00,pywws,2013-04-08 06:32:00,
2013-04-08 02:37:00,45.0,41.6,29.98,West,270,0.0,0.0,88,0.00,,,0.00,pywws,2013-04-08 06:37:00,
2013-04-08 02:42:00,44.8,41.4,29.98,West,270,0.0,0.0,88,0.00,,,0.00,pywws,2013-04-08 06:42:00,
2013-04-08 02:47:00,45.0,41.6,29.98,West,270,0.0,0.0,88,0.00,,,0.00,pywws,2013-04-08 06:47:00,
2013-04-08 02:53:00,44.8,41.4,29.98,West,270,0.0,0.0,88,0.00,,,0.00,pywws,2013-04-08 06:53:00,
2013-04-08 02:59:00,44.6,41.3,29.97,South,180,0.0,0.0,88,0.00,,,0.00,pywws,2013-04-08 06:59:00,
2013-04-08 03:04:00,44.6,41.3,29.97,West,270,0.0,0.0,88,0.00,,,0.00,pywws,2013-04-08 07:04:00,
2013-04-08 03:10:00,44.4,41.4,29.97,West,270,0.0,0.0,89,0.00,,,0.00,pywws,2013-04-08 07:10:00,
2013-04-08 03:16:00,43.7,40.7,29.97,North,0,0.0,0.0,89,0.00,,,0.00,pywws,2013-04-08 07:16:00,
2013-04-08 03:22:00,43.2,40.1,29.97,West,270,0.0,0.0,89,0.00,,,0.00,pywws,2013-04-08 07:22:00,
2013-04-08 03:28:00,42.4,40.0,29.97,West,270,0.0,0.0,91,0.00,,,0.00,pywws,2013-04-08 07:28:00,
2013-04-08 03:34:00,41.9,39.5,29.97,West,270,0.0,0.0,91,0.00,,,0.00,pywws,2013-04-08 07:34:00,
2013-04-08 03:39:00,41.0,38.6,29.97,West,270,0.0,0.0,91,0.00,,,0.00,pywws,2013-04-08 07:39:00,
2013-04-08 03:44:00,41.5,39.4,29.97,West,270,0.0,0.0,92,0.00,,,0.00,pywws,2013-04-08 07:44:00,
2013-04-08 03:50:00,41.0,38.9,29.97,NE,45,0.0,0.0,92,0.00,,,0.00,pywws,2013-04-08 07:50:00,
2013-04-08 03:58:00,40.6,39.1,29.96,East,90,0.0,0.0,94,0.00,,,0.00,pywws,2013-04-08 07:58:00,
2013-04-08 04:03:00,39.9,38.3,29.97,East,90,0.0,0.0,94,0.00,,,0.00,pywws,2013-04-08 08:03:00,
2013-04-08 04:09:00,39.4,37.8,29.97,East,90,0.0,0.0,94,0.00,,,0.00,pywws,2013-04-08 08:09:00,
2013-04-08 04:14:00,39.4,37.8,29.97,East,90,0.0,0.0,94,0.00,,,0.00,pywws,2013-04-08 08:14:00,
2013-04-08 04:20:00,39.0,37.7,29.97,East,90,0.0,0.0,95,0.00,,,0.00,pywws,2013-04-08 08:20:00,
2013-04-08 04:27:00,38.7,37.4,29.97,East,90,0.0,0.0,95,0.00,,,0.00,pywws,2013-04-08 08:27:00,
2013-04-08 04:32:00,37.8,36.5,29.97,East,90,0.0,0.0,95,0.00,,,0.00,pywws,2013-04-08 08:32:00,
2013-04-08 04:37:00,37.8,36.5,29.98,East,90,0.0,0.0,95,0.00,,,0.00,pywws,2013-04-08 08:37:00,
2013-04-08 04:42:00,37.6,36.5,29.98,East,90,0.0,0.0,96,0.00,,,0.00,pywws,2013-04-08 08:42:00,
2013-04-08 04:48:00,37.4,36.4,29.98,East,90,0.0,0.0,96,0.00,,,0.00,pywws,2013-04-08 08:48:00,
2013-04-08 04:54:00,37.0,34.9,29.98,East,90,0.0,0.0,92,0.00,,,0.00,pywws,2013-04-08 08:54:00,
2013-04-08 04:59:00,37.2,35.1,29.98,East,90,0.0,0.0,92,0.00,,,0.00,pywws,2013-04-08 08:59:00,
2013-04-08 05:04:00,37.4,36.4,29.98,East,90,0.0,0.0,96,0.00,,,0.00,pywws,2013-04-08 09:04:00,
2013-04-08 05:10:00,38.5,37.7,29.98,North,0,0.0,0.0,97,0.00,,,0.00,pywws,2013-04-08 09:10:00,
2013-04-08 05:19:00,38.5,37.7,29.98,West,270,0.0,0.0,97,0.00,,,0.00,pywws,2013-04-08 09:19:00,
2013-04-08 05:24:00,39.6,38.5,29.99,West,270,0.0,0.0,96,0.00,,,0.00,pywws,2013-04-08 09:24:00,
2013-04-08 05:30:00,41.2,40.1,29.99,West,270,0.0,0.0,96,0.00,,,0.00,pywws,2013-04-08 09:30:00,
2013-04-08 05:35:00,41.7,40.7,29.99,West,270,0.0,0.0,96,0.00,,,0.00,pywws,2013-04-08 09:35:00,
2013-04-08 05:42:00,41.9,40.8,29.98,West,270,0.0,0.0,96,0.00,,,0.00,pywws,2013-04-08 09:42:00,
2013-04-08 05:47:00,42.1,41.3,29.99,West,270,0.0,0.0,97,0.00,,,0.00,pywws,2013-04-08 09:47:00,
2013-04-08 05:53:00,41.9,41.1,29.98,SE,135,0.0,0.0,97,0.00,,,0.00,pywws,2013-04-08 09:53:00,
2013-04-08 05:59:00,41.7,40.9,29.98,West,270,0.0,0.0,97,0.00,,,0.00,pywws,2013-04-08 09:59:00,
2013-04-08 06:04:00,41.9,41.1,29.98,West,270,0.0,0.0,97,0.00,,,0.00,pywws,2013-04-08 10:04:00,
2013-04-08 06:10:00,41.4,40.6,29.99,West,270,0.0,0.0,97,0.00,,,0.00,pywws,2013-04-08 10:10:00,
2013-04-08 06:15:00,40.6,40.1,29.99,West,270,0.0,0.0,98,0.00,,,0.00,pywws,2013-04-08 10:15:00,
2013-04-08 06:21:00,40.8,40.0,29.99,West,270,0.0,0.0,97,0.00,,,0.00,pywws,2013-04-08 10:21:00,
2013-04-08 06:26:00,40.6,39.9,29.99,West,270,0.0,0.0,97,0.00,,,0.00,pywws,2013-04-08 10:26:00,
2013-04-08 06:32:00,41.2,40.4,30.00,West,270,0.0,0.0,97,0.00,,,0.00,pywws,2013-04-08 10:32:00,
2013-04-08 06:39:00,40.8,40.3,30.00,West,270,0.0,0.0,98,0.00,,,0.00,pywws,2013-04-08 10:39:00,
2013-04-08 06:45:00,41.2,40.4,30.00,West,270,0.0,0.0,97,0.00,,,0.00,pywws,2013-04-08 10:45:00,
2013-04-08 06:50:00,41.4,40.6,30.00,West,270,0.0,0.0,97,0.00,,,0.00,pywws,2013-04-08 10:50:00,
2013-04-08 06:57:00,41.7,40.9,30.00,West,270,0.0,0.0,97,0.00,,,0.00,pywws,2013-04-08 10:57:00,
2013-04-08 07:02:00,41.9,41.1,30.00,West,270,0.0,0.0,97,0.00,,,0.00,pywws,2013-04-08 11:02:00,
2013-04-08 07:08:00,42.1,41.3,30.01,West,270,0.0,0.0,97,0.00,,,0.00,pywws,2013-04-08 11:08:00,
2013-04-08 07:14:00,42.4,41.6,30.01,West,270,0.0,0.0,97,0.00,,,0.00,pywws,2013-04-08 11:14:00,
2013-04-08 07:19:00,42.8,42.0,30.01,West,270,0.0,0.0,97,0.00,,,0.00,pywws,2013-04-08 11:19:00,
2013-04-08 07:25:00,43.0,42.2,30.01,West,270,0.0,0.0,97,0.00,,,0.00,pywws,2013-04-08 11:25:00,
2013-04-08 07:32:00,43.3,42.5,30.01,SW,225,0.0,0.0,97,0.00,,,0.00,pywws,2013-04-08 11:32:00,
2013-04-08 07:38:00,43.7,42.6,30.01,West,270,0.0,0.0,96,0.00,,,0.00,pywws,2013-04-08 11:38:00,
2013-04-08 07:43:00,44.1,43.0,30.01,East,90,0.0,0.0,96,0.00,,,0.00,pywws,2013-04-08 11:43:00,
2013-04-08 07:49:00,45.0,43.3,30.02,West,270,0.0,0.0,94,0.00,,,0.00,pywws,2013-04-08 11:49:00,
2013-04-08 07:54:00,45.5,43.3,30.02,East,90,0.0,0.0,92,0.00,,,0.00,pywws,2013-04-08 11:54:00,
2013-04-08 07:59:00,45.9,43.4,30.02,South,180,0.0,0.7,91,0.00,,,0.00,pywws,2013-04-08 11:59:00,
2013-04-08 08:05:00,46.2,42.9,30.02,West,270,0.0,0.0,88,0.00,,,0.00,pywws,2013-04-08 12:05:00,
2013-04-08 08:10:00,46.6,42.9,30.03,West,270,0.0,0.0,87,0.00,,,0.00,pywws,2013-04-08 12:10:00,
2013-04-08 08:16:00,46.6,42.3,30.02,West,270,0.0,0.0,85,0.00,,,0.00,pywws,2013-04-08 12:16:00,
2013-04-08 08:22:00,47.1,42.8,30.02,West,270,0.0,0.0,85,0.00,,,0.00,pywws,2013-04-08 12:22:00,
2013-04-08 08:27:00,47.5,42.9,30.03,West,270,0.0,0.0,84,0.00,,,0.00,pywws,2013-04-08 12:27:00,
2013-04-08 08:33:00,47.8,42.6,30.02,West,270,0.0,0.0,82,0.00,,,0.00,pywws,2013-04-08 12:33:00,
2013-04-08 08:38:00,48.4,42.5,30.03,SW,225,0.0,0.0,80,0.00,,,0.00,pywws,2013-04-08 12:38:00,
2013-04-08 08:44:00,48.7,42.2,30.02,West,270,0.0,0.0,78,0.00,,,0.00,pywws,2013-04-08 12:44:00,
2013-04-08 08:50:00,48.9,42.0,30.03,South,180,0.0,0.0,77,0.00,,,0.00,pywws,2013-04-08 12:50:00,
2013-04-08 08:56:00,49.5,41.9,30.02,SW,225,0.0,0.0,75,0.00,,,0.00,pywws,2013-04-08 12:56:00,
2013-04-08 09:02:00,49.5,41.2,30.02,North,0,0.0,0.0,73,0.00,,,0.00,pywws,2013-04-08 13:02:00,
2013-04-08 09:07:00,50.0,40.6,30.02,NW,315,0.0,0.0,70,0.00,,,0.00,pywws,2013-04-08 13:07:00,
2013-04-08 09:13:00,50.4,40.2,30.02,West,270,0.0,0.0,68,0.00,,,0.00,pywws,2013-04-08 13:13:00,
2013-04-08 09:18:00,50.5,39.6,30.03,NW,315,0.0,0.0,66,0.00,,,0.00,pywws,2013-04-08 13:18:00,
2013-04-08 09:24:00,51.3,40.3,30.03,West,270,0.0,0.0,66,0.00,,,0.00,pywws,2013-04-08 13:24:00,
2013-04-08 09:29:00,50.9,39.6,30.03,West,270,0.0,0.0,65,0.00,,,0.00,pywws,2013-04-08 13:29:00,
2013-04-08 09:34:00,51.3,39.1,30.03,NW,315,0.0,3.1,63,0.00,,,0.00,pywws,2013-04-08 13:34:00,
2013-04-08 09:40:00,52.9,40.6,30.03,North,0,0.0,0.0,63,0.00,,,0.00,pywws,2013-04-08 13:40:00,
2013-04-08 09:46:00,52.2,39.5,30.03,West,270,0.0,1.6,62,0.00,,,0.00,pywws,2013-04-08 13:46:00,
2013-04-08 09:51:00,52.0,38.5,30.03,SE,135,0.0,0.0,60,0.00,,,0.00,pywws,2013-04-08 13:51:00,
2013-04-08 09:56:00,52.3,38.9,30.04,North,0,0.0,0.0,60,0.00,,,0.00,pywws,2013-04-08 13:56:00,
2013-04-08 10:02:00,52.7,38.3,30.04,East,90,0.0,0.0,58,0.00,,,0.00,pywws,2013-04-08 14:02:00,
2013-04-08 10:07:00,54.0,39.1,30.05,NW,315,0.0,0.0,57,0.00,,,0.00,pywws,2013-04-08 14:07:00,
2013-04-08 10:13:00,52.9,37.6,30.05,North,0,0.0,0.0,56,0.00,,,0.00,pywws,2013-04-08 14:13:00,
2013-04-08 10:18:00,53.8,38.0,30.04,NW,315,0.0,0.0,55,0.00,,,0.00,pywws,2013-04-08 14:18:00,
2013-04-08 10:24:00,54.5,39.1,30.05,South,180,0.0,0.0,56,0.00,,,0.00,pywws,2013-04-08 14:24:00,
2013-04-08 10:30:00,54.1,38.3,30.05,West,270,0.0,1.6,55,0.00,,,0.00,pywws,2013-04-08 14:30:00,
2013-04-08 10:35:00,55.0,39.6,30.05,North,0,0.0,0.0,56,0.00,,,0.00,pywws,2013-04-08 14:35:00,
2013-04-08 10:41:00,57.4,40.9,30.06,SW,225,0.0,2.2,54,0.00,,,0.00,pywws,2013-04-08 14:41:00,
2013-04-08 10:46:00,55.0,37.7,30.06,NW,315,0.0,0.0,52,0.00,,,0.00,pywws,2013-04-08 14:46:00,
2013-04-08 10:52:00,54.7,37.9,30.06,West,270,0.0,0.0,53,0.00,,,0.00,pywws,2013-04-08 14:52:00,
2013-04-08 10:58:00,55.4,38.6,30.06,North,0,0.0,0.0,53,0.00,,,0.00,pywws,2013-04-08 14:58:00,
2013-04-08 11:03:00,54.7,37.4,30.06,SW,225,0.0,0.0,52,0.00,,,0.00,pywws,2013-04-08 15:03:00,
2013-04-08 11:09:00,55.4,38.6,30.06,West,270,0.0,0.0,53,0.00,,,0.00,pywws,2013-04-08 15:09:00,
2013-04-08 11:14:00,55.0,37.7,30.06,West,270,0.0,0.0,52,0.00,,,0.00,pywws,2013-04-08 15:14:00,
2013-04-08 11:20:00,56.3,37.9,30.06,NW,315,0.0,0.0,50,0.00,,,0.00,pywws,2013-04-08 15:20:00,
2013-04-08 11:25:00,57.0,39.1,30.06,SE,135,0.0,0.7,51,0.00,,,0.00,pywws,2013-04-08 15:25:00,
2013-04-08 11:30:00,58.3,39.7,30.06,South,180,0.0,0.0,50,0.00,,,0.00,pywws,2013-04-08 15:30:00,
2013-04-08 11:36:00,57.9,38.3,30.06,West,270,0.0,2.2,48,0.00,,,0.00,pywws,2013-04-08 15:36:00,
2013-04-08 11:41:00,56.7,38.2,30.06,West,270,0.0,0.0,50,0.00,,,0.00,pywws,2013-04-08 15:41:00,
2013-04-08 11:46:00,56.3,37.4,30.06,North,0,0.0,0.0,49,0.00,,,0.00,pywws,2013-04-08 15:46:00,
2013-04-08 11:52:00,58.5,38.8,30.06,North,0,0.0,0.0,48,0.00,,,0.00,pywws,2013-04-08 15:52:00,
2013-04-08 11:57:00,57.6,37.5,30.06,NW,315,0.0,0.0,47,0.00,,,0.00,pywws,2013-04-08 15:57:00,
2013-04-08 12:02:00,58.1,38.0,30.06,NW,315,0.0,0.0,47,0.00,,,0.00,pywws,2013-04-08 16:02:00,
2013-04-08 12:08:00,60.4,39.6,30.06,South,180,0.0,0.0,46,0.00,,,0.00,pywws,2013-04-08 16:08:00,
2013-04-08 12:14:00,60.4,39.0,30.06,North,0,0.0,0.0,45,0.00,,,0.00,pywws,2013-04-08 16:14:00,
2013-04-08 12:19:00,60.4,39.0,30.06,West,270,0.0,0.0,45,0.00,,,0.00,pywws,2013-04-08 16:19:00,
2013-04-08 12:25:00,60.8,38.2,30.06,North,0,0.0,0.0,43,0.00,,,0.00,pywws,2013-04-08 16:25:00,
2013-04-08 12:30:00,60.6,38.6,30.06,North,0,0.0,1.6,44,0.00,,,0.00,pywws,2013-04-08 16:30:00,
2013-04-08 12:36:00,61.0,38.3,30.06,SW,225,0.0,1.6,43,0.00,,,0.00,pywws,2013-04-08 16:36:00,
2013-04-08 12:41:00,60.1,38.1,30.06,East,90,0.0,0.0,44,0.00,,,0.00,pywws,2013-04-08 16:41:00,
2013-04-08 12:46:00,62.6,39.2,30.06,NW,315,0.0,0.0,42,0.00,,,0.00,pywws,2013-04-08 16:46:00,
2013-04-08 12:52:00,63.0,39.5,30.06,North,0,0.0,0.7,42,0.00,,,0.00,pywws,2013-04-08 16:52:00,
2013-04-08 12:58:00,63.9,40.3,30.05,West,270,0.0,0.0,42,0.00,,,0.00,pywws,2013-04-08 16:58:00,
2013-04-08 13:03:00,61.7,37.1,30.06,North,0,0.0,0.0,40,0.00,,,0.00,pywws,2013-04-08 17:03:00,
2013-04-08 13:09:00,65.1,41.5,30.06,South,180,0.0,0.0,42,0.00,,,0.00,pywws,2013-04-08 17:09:00,
2013-04-08 13:15:00,62.1,36.8,30.06,North,0,0.0,0.0,39,0.00,,,0.00,pywws,2013-04-08 17:15:00,
2013-04-08 13:21:00,63.1,37.8,30.06,West,270,0.0,0.0,39,0.00,,,0.00,pywws,2013-04-08 17:21:00,
2013-04-08 13:26:00,64.9,39.4,30.06,South,180,0.0,0.0,39,0.00,,,0.00,pywws,2013-04-08 17:26:00,
2013-04-08 13:32:00,67.1,39.2,30.06,SW,225,0.0,0.0,36,0.00,,,0.00,pywws,2013-04-08 17:32:00,
2013-04-08 13:38:00,63.1,35.7,30.06,NW,315,0.0,3.1,36,0.00,,,0.00,pywws,2013-04-08 17:38:00,
2013-04-08 13:43:00,63.7,36.9,30.06,West,270,0.0,1.6,37,0.00,,,0.00,pywws,2013-04-08 17:43:00,
2013-04-08 13:49:00,65.5,39.9,30.06,East,90,0.0,0.0,39,0.00,,,0.00,pywws,2013-04-08 17:49:00,
2013-04-08 13:54:00,65.5,38.5,30.06,West,270,0.0,0.0,37,0.00,,,0.00,pywws,2013-04-08 17:54:00,
2013-04-08 13:59:00,66.9,39.8,30.06,West,270,0.0,0.0,37,0.00,,,0.00,pywws,2013-04-08 17:59:00,
2013-04-08 14:05:00,65.7,37.3,30.06,NW,315,0.0,0.0,35,0.00,,,0.00,pywws,2013-04-08 18:05:00,
2013-04-08 14:10:00,66.6,38.8,30.06,SW,225,0.0,0.0,36,0.00,,,0.00,pywws,2013-04-08 18:10:00,
2013-04-08 14:16:00,65.8,37.4,30.06,NW,315,0.0,0.0,35,0.00,,,0.00,pywws,2013-04-08 18:16:00,
2013-04-08 14:21:00,65.3,37.7,30.05,South,180,0.0,1.6,36,0.00,,,0.00,pywws,2013-04-08 18:21:00,
2013-04-08 14:26:00,68.7,40.0,30.05,North,0,0.0,0.0,35,0.00,,,0.00,pywws,2013-04-08 18:26:00,
2013-04-08 14:31:00,67.1,37.8,30.05,NW,315,0.0,0.0,34,0.00,,,0.00,pywws,2013-04-08 18:31:00,
2013-04-08 14:37:00,69.3,38.9,30.05,West,270,0.0,0.0,33,0.00,,,0.00,pywws,2013-04-08 18:37:00,
2013-04-08 14:42:00,69.4,35.8,30.05,South,180,0.0,0.0,29,0.00,,,0.00,pywws,2013-04-08 18:42:00,
2013-04-08 14:48:00,68.2,35.6,30.05,West,270,0.0,0.0,30,0.00,,,0.00,pywws,2013-04-08 18:48:00,
2013-04-08 14:54:00,68.4,38.1,30.04,North,0,0.0,1.6,33,0.00,,,0.00,pywws,2013-04-08 18:54:00,
2013-04-08 14:59:00,68.0,38.6,30.04,North,0,0.0,0.0,34,0.00,,,0.00,pywws,2013-04-08 18:59:00,
2013-04-08 15:05:00,65.7,35.8,30.04,East,90,0.0,0.0,33,0.00,,,0.00,pywws,2013-04-08 19:05:00,
2013-04-08 15:10:00,68.9,37.0,30.04,NW,315,0.0,0.0,31,0.00,,,0.00,pywws,2013-04-08 19:10:00,
2013-04-08 15:16:00,67.5,35.8,30.03,NW,315,0.0,0.7,31,0.00,,,0.00,pywws,2013-04-08 19:16:00,
2013-04-08 15:22:00,68.0,37.8,30.04,NW,315,0.0,0.0,33,0.00,,,0.00,pywws,2013-04-08 19:22:00,
2013-04-08 15:27:00,69.1,35.5,30.03,South,180,0.0,0.0,29,0.00,,,0.00,pywws,2013-04-08 19:27:00,
2013-04-08 15:33:00,70.5,35.8,30.03,West,270,0.0,0.7,28,0.00,,,0.00,pywws,2013-04-08 19:33:00,
2013-04-08 15:39:00,72.5,33.6,30.04,East,90,0.0,0.0,24,0.00,,,0.00,pywws,2013-04-08 19:39:00,
2013-04-08 15:44:00,70.9,36.1,30.04,NW,315,0.0,0.7,28,0.00,,,0.00,pywws,2013-04-08 19:44:00,
2013-04-08 15:49:00,69.4,36.6,30.03,West,270,0.0,0.0,30,0.00,,,0.00,pywws,2013-04-08 19:49:00,
2013-04-08 15:54:00,70.7,35.1,30.03,West,270,0.0,0.0,27,0.00,,,0.00,pywws,2013-04-08 19:54:00,
2013-04-08 16:00:00,72.7,35.8,30.03,West,270,0.0,0.0,26,0.00,,,0.00,pywws,2013-04-08 20:00:00,
2013-04-08 16:06:00,73.6,36.6,30.03,SE,135,0.0,0.0,26,0.00,,,0.00,pywws,2013-04-08 20:06:00,
2013-04-08 16:11:00,72.1,33.3,30.03,West,270,0.0,0.0,24,0.00,,,0.00,pywws,2013-04-08 20:11:00,
2013-04-08 16:17:00,71.8,35.0,30.03,SE,135,0.0,0.0,26,0.00,,,0.00,pywws,2013-04-08 20:17:00,
2013-04-08 16:22:00,68.4,34.0,30.03,SE,135,0.0,0.0,28,0.00,,,0.00,pywws,2013-04-08 20:22:00,
2013-04-08 16:28:00,71.6,35.8,30.04,West,270,0.0,0.0,27,0.00,,,0.00,pywws,2013-04-08 20:28:00,
2013-04-08 16:34:00,69.1,31.8,30.04,West,270,0.0,0.0,25,0.00,,,0.00,pywws,2013-04-08 20:34:00,
2013-04-08 16:39:00,69.8,33.4,30.03,North,0,0.0,0.0,26,0.00,,,0.00,pywws,2013-04-08 20:39:00,
2013-04-08 16:45:00,71.1,34.4,30.03,West,270,0.0,1.6,26,0.00,,,0.00,pywws,2013-04-08 20:45:00,
2013-04-08 16:50:00,69.4,32.1,30.03,North,0,0.0,0.0,25,0.00,,,0.00,pywws,2013-04-08 20:50:00,
2013-04-08 16:56:00,69.8,31.4,30.03,West,270,0.0,0.0,24,0.00,,,0.00,pywws,2013-04-08 20:56:00,
2013-04-08 17:01:00,68.4,31.2,30.03,South,180,0.0,0.0,25,0.00,,,0.00,pywws,2013-04-08 21:01:00,
2013-04-08 17:06:00,67.8,34.4,30.03,NE,45,0.0,0.0,29,0.00,,,0.00,pywws,2013-04-08 21:06:00,
2013-04-08 17:12:00,68.7,32.4,30.03,West,270,0.0,0.0,26,0.00,,,0.00,pywws,2013-04-08 21:12:00,
2013-04-08 17:18:00,66.6,30.6,30.03,North,0,0.0,0.0,26,0.00,,,0.00,pywws,2013-04-08 21:18:00,
2013-04-08 17:23:00,66.6,32.4,30.03,South,180,0.0,0.0,28,0.00,,,0.00,pywws,2013-04-08 21:23:00,
2013-04-08 17:29:00,66.2,33.8,30.03,South,180,0.0,0.0,30,0.00,,,0.00,pywws,2013-04-08 21:29:00,
2013-04-08 17:34:00,67.1,32.9,30.04,South,180,0.0,0.0,28,0.00,,,0.00,pywws,2013-04-08 21:34:00,
2013-04-08 17:40:00,65.7,33.4,30.03,North,0,0.0,0.0,30,0.00,,,0.00,pywws,2013-04-08 21:40:00,
2013-04-08 17:46:00,65.1,33.7,30.03,North,0,0.0,0.0,31,0.00,,,0.00,pywws,2013-04-08 21:46:00,
2013-04-08 17:52:00,64.8,34.2,30.04,North,0,0.0,0.0,32,0.00,,,0.00,pywws,2013-04-08 21:52:00,
2013-04-08 17:57:00,64.6,36.3,30.03,South,180,0.0,0.0,35,0.00,,,0.00,pywws,2013-04-08 21:57:00,
2013-04-08 18:02:00,64.2,32.9,30.03,East,90,0.0,0.0,31,0.00,,,0.00,pywws,2013-04-08 22:02:00,
2013-04-08 18:08:00,64.0,33.6,30.04,North,0,0.0,0.0,32,0.00,,,0.00,pywws,2013-04-08 22:08:00,
2013-04-08 18:14:00,64.0,34.4,30.04,West,270,0.0,0.0,33,0.00,,,0.00,pywws,2013-04-08 22:14:00,
2013-04-08 18:19:00,63.7,34.8,30.04,South,180,0.0,0.0,34,0.00,,,0.00,pywws,2013-04-08 22:19:00,
2013-04-08 18:25:00,63.0,34.2,30.05,South,180,0.0,0.0,34,0.00,,,0.00,pywws,2013-04-08 22:25:00,
2013-04-08 18:30:00,62.6,33.8,30.04,West,270,0.0,0.0,34,0.00,,,0.00,pywws,2013-04-08 22:30:00,
2013-04-08 18:36:00,62.2,34.2,30.05,West,270,0.0,0.0,35,0.00,,,0.00,pywws,2013-04-08 22:36:00,
2013-04-08 18:41:00,61.7,35.2,30.05,West,270,0.0,0.0,37,0.00,,,0.00,pywws,2013-04-08 22:41:00,
2013-04-08 18:47:00,60.8,36.3,30.05,West,270,0.0,0.0,40,0.00,,,0.00,pywws,2013-04-08 22:47:00,
2013-04-08 18:52:00,59.9,37.3,30.05,West,270,0.0,0.0,43,0.00,,,0.00,pywws,2013-04-08 22:52:00,
2013-04-08 18:59:00,59.4,37.4,30.05,West,270,0.0,0.0,44,0.00,,,0.00,pywws,2013-04-08 22:59:00,
2013-04-08 19:04:00,58.6,38.5,30.06,West,270,0.0,0.0,47,0.00,,,0.00,pywws,2013-04-08 23:04:00,
2013-04-08 19:10:00,57.7,37.6,30.06,West,270,0.0,0.0,47,0.00,,,0.00,pywws,2013-04-08 23:10:00,
2013-04-08 19:17:00,57.0,39.1,30.06,West,270,0.0,0.0,51,0.00,,,0.00,pywws,2013-04-08 23:17:00,
2013-04-08 19:22:00,56.5,39.1,30.06,North,0,0.0,0.0,52,0.00,,,0.00,pywws,2013-04-08 23:22:00,
2013-04-08 19:28:00,55.2,37.9,30.06,North,0,0.0,0.0,52,0.00,,,0.00,pywws,2013-04-08 23:28:00,
2013-04-08 19:34:00,54.5,38.2,30.06,North,0,0.0,0.0,54,0.00,,,0.00,pywws,2013-04-08 23:34:00,
2013-04-08 19:39:00,53.6,37.8,30.06,North,0,0.0,0.0,55,0.00,,,0.00,pywws,2013-04-08 23:39:00,
2013-04-08 19:44:00,53.1,38.2,30.06,North,0,0.0,0.0,57,0.00,,,0.00,pywws,2013-04-08 23:44:00,
2013-04-08 19:50:00,53.6,38.7,30.06,North,0,0.0,0.0,57,0.00,,,0.00,pywws,2013-04-08 23:50:00,
2013-04-08 19:55:00,52.9,38.9,30.06,North,0,0.0,0.0,59,0.00,,,0.00,pywws,2013-04-08 23:55:00,
2013-04-08 20:01:00,51.8,37.5,30.06,North,0,0.0,0.0,58,0.00,,,0.00,pywws,2013-04-09 00:01:00,
2013-04-08 20:06:00,51.4,38.0,30.06,North,0,0.0,0.0,60,0.00,,,0.00,pywws,2013-04-09 00:06:00,
2013-04-08 20:13:00,51.4,39.3,30.07,North,0,0.0,0.0,63,0.00,,,0.00,pywws,2013-04-09 00:13:00,
2013-04-08 20:19:00,53.2,39.7,30.07,South,180,0.0,0.0,60,0.00,,,0.00,pywws,2013-04-09 00:19:00,
2013-04-08 20:24:00,54.9,41.7,30.07,West,270,0.0,0.0,61,0.00,,,0.00,pywws,2013-04-09 00:24:00,
2013-04-08 20:30:00,55.2,41.6,30.07,West,270,0.0,0.0,60,0.00,,,0.00,pywws,2013-04-09 00:30:00,
2013-04-08 20:35:00,55.0,41.8,30.08,West,270,0.0,0.0,61,0.00,,,0.00,pywws,2013-04-09 00:35:00,
2013-04-08 20:41:00,54.9,41.7,30.08,South,180,0.0,0.0,61,0.00,,,0.00,pywws,2013-04-09 00:41:00,
2013-04-08 20:47:00,53.8,40.7,30.08,West,270,0.0,0.0,61,0.00,,,0.00,pywws,2013-04-09 00:47:00,
2013-04-08 20:52:00,54.5,41.7,30.09,South,180,0.0,0.0,62,0.00,,,0.00,pywws,2013-04-09 00:52:00,
2013-04-08 20:58:00,55.0,42.3,30.09,South,180,0.0,0.0,62,0.00,,,0.00,pywws,2013-04-09 00:58:00,
2013-04-08 21:03:00,54.0,41.2,30.08,South,180,0.0,0.0,62,0.00,,,0.00,pywws,2013-04-09 01:03:00,
2013-04-08 21:09:00,53.1,41.2,30.09,South,180,0.0,0.0,64,0.00,,,0.00,pywws,2013-04-09 01:09:00,
2013-04-08 21:14:00,53.1,41.6,30.09,South,180,0.0,0.0,65,0.00,,,0.00,pywws,2013-04-09 01:14:00,
2013-04-08 21:20:00,52.5,41.5,30.09,South,180,0.0,0.0,66,0.00,,,0.00,pywws,2013-04-09 01:20:00,
2013-04-08 21:26:00,52.7,41.7,30.09,North,0,0.0,0.0,66,0.00,,,0.00,pywws,2013-04-09 01:26:00,
2013-04-08 21:31:00,52.3,41.3,30.09,North,0,0.0,0.0,66,0.00,,,0.00,pywws,2013-04-09 01:31:00,
2013-04-08 21:37:00,52.0,41.4,30.09,East,90,0.0,0.0,67,0.00,,,0.00,pywws,2013-04-09 01:37:00,
2013-04-08 21:42:00,52.2,41.9,30.09,West,270,0.0,0.0,68,0.00,,,0.00,pywws,2013-04-09 01:42:00,
2013-04-08 21:48:00,52.9,42.6,30.09,West,270,0.0,0.0,68,0.00,,,0.00,pywws,2013-04-09 01:48:00,
2013-04-08 21:54:00,53.1,42.8,30.09,West,270,0.0,0.0,68,0.00,,,0.00,pywws,2013-04-09 01:54:00,
2013-04-08 22:00:00,52.5,41.9,30.09,West,270,0.0,0.0,67,0.00,,,0.00,pywws,2013-04-09 02:00:00,
2013-04-08 22:06:00,53.1,42.8,30.09,West,270,0.0,0.0,68,0.00,,,0.00,pywws,2013-04-09 02:06:00,
2013-04-08 22:11:00,52.9,42.6,30.09,West,270,0.0,0.0,68,0.00,,,0.00,pywws,2013-04-09 02:11:00,
2013-04-08 22:16:00,53.1,42.8,30.09,West,270,0.0,0.0,68,0.00,,,0.00,pywws,2013-04-09 02:16:00,
2013-04-08 22:22:00,52.9,43.0,30.09,East,90,0.0,0.0,69,0.00,,,0.00,pywws,2013-04-09 02:22:00,
2013-04-08 22:27:00,52.5,42.6,30.09,East,90,0.0,0.0,69,0.00,,,0.00,pywws,2013-04-09 02:27:00,
2013-04-08 22:33:00,52.2,42.7,30.09,East,90,0.0,0.0,70,0.00,,,0.00,pywws,2013-04-09 02:33:00,
2013-04-08 22:38:00,52.0,42.5,30.09,West,270,0.0,0.0,70,0.00,,,0.00,pywws,2013-04-09 02:38:00,
2013-04-08 22:44:00,52.3,43.2,30.09,South,180,0.0,0.0,71,0.00,,,0.00,pywws,2013-04-09 02:44:00,
2013-04-08 22:50:00,52.2,43.0,30.09,West,270,0.0,0.0,71,0.00,,,0.00,pywws,2013-04-09 02:50:00,
2013-04-08 22:55:00,51.8,42.7,30.09,South,180,0.0,0.0,71,0.00,,,0.00,pywws,2013-04-09 02:55:00,
2013-04-08 23:01:00,51.4,43.1,30.09,South,180,0.0,0.0,73,0.00,,,0.00,pywws,2013-04-09 03:01:00,
2013-04-08 23:06:00,51.1,42.7,30.08,West,270,0.0,0.0,73,0.00,,,0.00,pywws,2013-04-09 03:06:00,
2013-04-08 23:12:00,51.1,42.7,30.08,South,180,0.0,0.0,73,0.00,,,0.00,pywws,2013-04-09 03:12:00,
2013-04-08 23:18:00,50.9,42.6,30.09,South,180,0.0,0.0,73,0.00,,,0.00,pywws,2013-04-09 03:18:00,
2013-04-08 23:23:00,50.9,42.9,30.08,South,180,0.0,0.0,74,0.00,,,0.00,pywws,2013-04-09 03:23:00,
2013-04-08 23:29:00,50.7,42.7,30.09,South,180,0.0,0.0,74,0.00,,,0.00,pywws,2013-04-09 03:29:00,
2013-04-08 23:34:00,50.9,42.9,30.08,South,180,0.0,0.0,74,0.00,,,0.00,pywws,2013-04-09 03:34:00,
2013-04-08 23:40:00,50.7,42.7,30.09,South,180,0.0,0.0,74,0.00,,,0.00,pywws,2013-04-09 03:40:00,
2013-04-08 23:46:00,50.5,42.6,30.09,SW,225,0.0,0.0,74,0.00,,,0.00,pywws,2013-04-09 03:46:00,
2013-04-08 23:52:00,50.5,42.6,30.09,SW,225,0.0,0.7,74,0.00,,,0.00,pywws,2013-04-09 03:52:00,
2013-04-08 23:58:00,50.4,42.4,30.09,East,90,0.0,0.0,74,0.00,,,0.00,pywws,2013-04-09 03:58:00,